Volver al catálogo

COSMOS 2499 DEB

ActivoPO
NORAD 60617·DEBRIS·🇷🇺 Russia

Lanzado May 23, 2014 desde Plesetsk Cosmodrome

Loading…

Próximos Pases (próximas 24 horas)

TLE

ActualizadoSource: Space-Track

Época: Sep 12, 2026, 19:57 UTC

1 60617U 14028CD  26255.83172522  .00004586  00000-0  91119-2 0  9991
2 60617  82.1828 106.5669 0203031 302.8663  55.3065 13.27394043160637

Sigue COSMOS 2499 DEB en tiempo real con AllMySat

Download on the App Store